Location: Skalnate Pleso
(49.1889°N, 20.2450°E)
Time: 21:20:59
(UTC+01:00)

Lacrosse 5 rocket - Pass Details

Date: 19 November 2019
Orbit: 460 x 637 km, 57.0° (Epoch: 05 December)

Event Time Altitude Azimuth Distance (km) Brightness Sun altitude
Exits shadow 04:24:54 30° 30° (NNE) 864 2.5 -24.1°
Drops below altitude 10° 04:27:45 10° 81° (E) 1,610 4.7 -23.7°
Sets 04:30:02 0° 92° (E) 2,482 6.1 -23.3°
